Volver al catálogo

STARLINK-31492

ActivoComunicacionesVLEO
NORAD 59212·PAYLOAD·🇺🇸 United States

Lanzado Mar 11, 2024 desde Vandenberg Space Force Base

Loading…

Próximos Pases (próximas 24 horas)

TLE

ActualizadoSource: CelesTrak SupGP

Época: Sep 15, 2026, 02:31 UTC

1 59212C 24046M   26258.10534722  .00070446  00000+0  20817-2 0  2580
2 59212  53.1581 354.6008 0001148  97.1471 236.7851 15.34350210    10

Sigue STARLINK-31492 en tiempo real con AllMySat

Download on the App Store